{"data":{"norad_id":56200,"intl_designator":"2023-054Y","name":"HAWK-7C","alt_names":[],"object_type":"PAYLOAD","status":"ACTIVE","operator":null,"country":"US","launch_date":"2023-04-15","launch_site_code":"AFWTR","launch_vehicle":null,"mission":null,"orbit_class":"UNKNOWN","rcs_meters":null,"size_class":null,"mass_kg":null,"dimensions":null,"purposes":["tech_demo"],"wikipedia_slug":null,"has_3d_model":false,"image_url":null,"decayed_at":null,"tle_current":{"epoch":"2026-05-25T02:42:03.746304Z","epoch_age_seconds":79530,"freshness":"FRESH","line1":"1 56200U 23054Y   26145.11254336  .00004950  00000+0  18905-3 0  9993","line2":"2 56200  97.2737  32.0686 0004119 104.4565 255.7132 15.27077189173503","mean_motion":15.27077189,"eccentricity":0.0004119,"inclination_deg":97.2737,"raan_deg":32.0686,"arg_perigee_deg":104.4565,"mean_anomaly_deg":255.7132,"bstar":0.00018905,"rev_number":17350,"period_min":94.297787326846,"perigee_km":481.72836328062,"apogee_km":487.38184903768,"semimajor_km":6862.6921061592,"source":"CELESTRAK","updated_at":"2026-05-25T13:38:24.931270Z"}}}